| time (UTC) | temp F | wind direction | speed MPH | gust MPH | rain 1hr in | rain 24hr in | rain mn in | humidity % | barometer mb |
| 20260507193459 | 74 | 250 | 9.0 | 13.0 | 0.00 | 0.00 | 0.00 | 31 | 1008.7 |
| 20260507192957 | 73 | 302 | 5.0 | 13.0 | 0.00 | 0.00 | 0.00 | 38 | 1008.7 |
| 20260507192457 | 73 | 279 | 6.0 | 12.0 | 0.00 | 0.00 | 0.00 | 41 | 1008.7 |
| 20260507191457 | 73 | 242 | 6.0 | 13.0 | 0.00 | 0.00 | 0.00 | 36 | 1008.8 |
| 20260507190956 | 72 | 240 | 4.0 | 16.0 | 0.00 | 0.00 | 0.00 | 37 | 1008.7 |
| 20260507190457 | 72 | 286 | 4.0 | 16.0 | 0.00 | 0.00 | 0.00 | 41 | 1008.9 |
| 20260507185955 | 72 | 309 | 7.0 | 13.0 | 0.00 | 0.00 | 0.00 | 38 | 1008.9 |
| 20260507185457 | 72 | 9 | 3.0 | 12.0 | 0.00 | 0.00 | 0.00 | 35 | 1008.8 |
| 20260507184455 | 71 | 223 | 6.0 | 14.0 | 0.00 | 0.00 | 0.00 | 37 | 1009.0 |
| 20260507183956 | 71 | 294 | 7.0 | 18.0 | 0.00 | 0.00 | 0.00 | 37 | 1008.9 |
| 20260507183455 | 71 | 257 | 7.0 | 18.0 | 0.00 | 0.00 | 0.00 | 40 | 1009.1 |
| 20260507182453 | 69 | 243 | 5.0 | 12.0 | 0.00 | 0.00 | 0.00 | 37 | 1009.1 |
| 20260507181953 | 71 | 254 | 7.0 | 12.0 | 0.00 | 0.00 | 0.00 | 35 | 1009.2 |
| 20260507181453 | 71 | 216 | 5.0 | 16.0 | 0.00 | 0.00 | 0.00 | 40 | 1009.3 |
| 20260507180952 | 70 | 261 | 5.0 | 16.0 | 0.00 | 0.00 | 0.00 | 39 | 1009.4 |
| 20260507180452 | 69 | 267 | 8.0 | 16.0 | 0.00 | 0.00 | 0.00 | 41 | 1009.3 |
| 20260507175952 | 69 | 273 | 9.0 | 15.0 | 0.00 | 0.00 | 0.00 | 38 | 1009.5 |
| 20260507175452 | 69 | 238 | 7.0 | 16.0 | 0.00 | 0.00 | 0.00 | 37 | 1009.6 |
| 20260507173951 | 67 | 291 | 4.0 | 15.0 | 0.00 | 0.00 | 0.00 | 46 | 1009.6 |
| 20260507173450 | 67 | 240 | 9.0 | 16.0 | 0.00 | 0.00 | 0.00 | 39 | 1009.7 |
| 20260507172950 | 67 | 241 | 8.0 | 16.0 | 0.00 | 0.00 | 0.00 | 40 | 1009.8 |
| 20260507172450 | 67 | 230 | 5.0 | 17.0 | 0.00 | 0.00 | 0.00 | 42 | 1009.9 |
| 20260507171949 | 66 | 309 | 7.0 | 17.0 | 0.00 | 0.00 | 0.00 | 42 | 1010.0 |
| 20260507171448 | 66 | 236 | 8.0 | 15.0 | 0.00 | 0.00 | 0.00 | 39 | 1010.0 |
| 20260507170948 | 66 | 238 | 7.0 | 17.0 | 0.00 | 0.00 | 0.00 | 40 | 1010.0 |
| 20260507170448 | 66 | 196 | 9.0 | 17.0 | 0.00 | 0.00 | 0.00 | 40 | 1010.3 |
| 20260507165948 | 66 | 250 | 4.0 | 11.0 | 0.00 | 0.00 | 0.00 | 42 | 1010.3 |
| 20260507165447 | 65 | 270 | 5.0 | 16.0 | 0.00 | 0.00 | 0.00 | 43 | 1010.4 |
| 20260507164448 | 66 | 200 | 4.0 | 10.0 | 0.00 | 0.00 | 0.00 | 43 | 1010.5 |
| 20260507163946 | 65 | 221 | 5.0 | 10.0 | 0.00 | 0.00 | 0.00 | 46 | 1010.5 |
| 20260507163447 | 65 | 254 | 3.0 | 11.0 | 0.00 | 0.00 | 0.00 | 44 | 1010.5 |
| 20260507161444 | 63 | 229 | 7.0 | 12.0 | 0.00 | 0.00 | 0.00 | 45 | 1010.8 |
| 20260507160944 | 63 | 229 | 6.0 | 11.0 | 0.00 | 0.00 | 0.00 | 49 | 1010.8 |
| 20260507160443 | 62 | 212 | 6.0 | 10.0 | 0.00 | 0.00 | 0.00 | 49 | 1010.8 |
| 20260507155942 | 62 | 178 | 4.0 | 10.0 | 0.00 | 0.00 | 0.00 | 48 | 1010.8 |
| 20260507155443 | 62 | 229 | 5.0 | 11.0 | 0.00 | 0.00 | 0.00 | 49 | 1010.9 |
| 20260507154942 | 62 | 249 | 5.0 | 11.0 | 0.00 | 0.00 | 0.00 | 51 | 1010.9 |
| 20260507153941 | 62 | 205 | 5.0 | 9.0 | 0.00 | 0.00 | 0.00 | 53 | 1011.0 |
| 20260507153441 | 61 | 232 | 3.0 | 9.0 | 0.00 | 0.00 | 0.00 | 50 | 1011.1 |
| 20260507152940 | 61 | 229 | 6.0 | 9.0 | 0.00 | 0.00 | 0.00 | 54 | 1011.2 |
| 20260507152441 | 61 | 282 | 6.0 | 10.0 | 0.00 | 0.00 | 0.00 | 54 | 1011.2 |
| 20260507151939 | 60 | 225 | 6.0 | 10.0 | 0.00 | 0.00 | 0.00 | 54 | 1011.3 |
| 20260507151439 | 60 | 237 | 3.0 | 11.0 | 0.00 | 0.00 | 0.00 | 57 | 1011.3 |
| 20260507150939 | 60 | 237 | 4.0 | 12.0 | 0.00 | 0.00 | 0.00 | 57 | 1011.4 |
| 20260507150439 | 59 | 248 | 6.0 | 12.0 | 0.00 | 0.00 | 0.00 | 56 | 1011.6 |
| 20260507145938 | 59 | 294 | 6.0 | 11.0 | 0.00 | 0.00 | 0.00 | 58 | 1011.6 |
| 20260507145437 | 59 | 306 | 3.0 | 11.0 | 0.00 | 0.00 | 0.00 | 61 | 1011.7 |
| 20260507144937 | 58 | 244 | 7.0 | 10.0 | 0.00 | 0.00 | 0.00 | 58 | 1011.6 |
| 20260507143937 | 56 | 344 | 5.0 | 9.0 | 0.00 | 0.00 | 0.00 | 64 | 1011.7 |
| 20260507143437 | 56 | 279 | 4.0 | 11.0 | 0.00 | 0.00 | 0.00 | 64 | 1011.6 |
| 20260507142936 | 55 | 221 | 6.0 | 11.0 | 0.00 | 0.00 | 0.00 | 63 | 1011.7 |
| 20260507142436 | 55 | 257 | 2.0 | 11.0 | 0.00 | 0.00 | 0.00 | 66 | 1011.7 |
| 20260507141936 | 54 | 203 | 5.0 | 12.0 | 0.00 | 0.00 | 0.00 | 66 | 1011.7 |
| 20260507141435 | 54 | 194 | 6.0 | 14.0 | 0.00 | 0.00 | 0.00 | 65 | 1011.8 |
| 20260507140434 | 53 | 230 | 6.0 | 12.0 | 0.00 | 0.00 | 0.00 | 67 | 1011.9 |
| 20260507135433 | 52 | 215 | 8.0 | 13.0 | 0.00 | 0.00 | 0.00 | 68 | 1011.8 |
| 20260507134934 | 52 | 262 | 6.0 | 12.0 | 0.00 | 0.00 | 0.00 | 68 | 1011.8 |
| 20260507134434 | 52 | 225 | 7.0 | 12.0 | 0.00 | 0.00 | 0.00 | 69 | 1011.9 |
| 20260507133933 | 51 | 273 | 6.0 | 13.0 | 0.00 | 0.00 | 0.00 | 71 | 1011.8 |
| 20260507133433 | 51 | 284 | 7.0 | 13.0 | 0.00 | 0.00 | 0.00 | 71 | 1011.9 |
| 20260507132932 | 51 | 225 | 5.0 | 15.0 | 0.00 | 0.00 | 0.00 | 73 | 1012.0 |
| 20260507132429 | 50 | 225 | 8.0 | 15.0 | 0.00 | 0.00 | 0.00 | 73 | 1011.9 |
| 20260507131426 | 49 | 257 | 5.0 | 13.0 | 0.00 | 0.00 | 0.00 | 75 | 1011.8 |
| 20260507130926 | 49 | 209 | 6.0 | 13.0 | 0.00 | 0.00 | 0.00 | 76 | 1012.1 |
| 20260507130426 | 48 | 221 | 5.0 | 12.0 | 0.00 | 0.00 | 0.00 | 77 | 1012.1 |
| 20260507125925 | 48 | 231 | 6.0 | 12.0 | 0.00 | 0.00 | 0.00 | 76 | 1012.1 |
| 20260507125424 | 48 | 203 | 7.0 | 11.0 | 0.00 | 0.00 | 0.00 | 77 | 1012.1 |
| 20260507124924 | 47 | 192 | 6.0 | 11.0 | 0.00 | 0.00 | 0.00 | 78 | 1012.1 |
| 20260507124425 | 47 | 262 | 5.0 | 10.0 | 0.00 | 0.00 | 0.00 | 79 | 1012.1 |
| 20260507123925 | 47 | 207 | 6.0 | 11.0 | 0.00 | 0.00 | 0.00 | 79 | 1012.1 |
| 20260507122923 | 46 | 226 | 5.0 | 11.0 | 0.00 | 0.00 | 0.00 | 80 | 1012.1 |
| 20260507122423 | 46 | 217 | 5.0 | 10.0 | 0.00 | 0.00 | 0.00 | 80 | 1012.1 |
| 20260507121421 | 45 | 226 | 3.0 | 9.0 | 0.00 | 0.00 | 0.00 | 80 | 1012.2 |
| 20260507120920 | 45 | 221 | 4.0 | 9.0 | 0.00 | 0.00 | 0.00 | 80 | 1012.2 |
| 20260507120422 | 45 | 221 | 4.0 | 8.0 | 0.00 | 0.00 | 0.00 | 80 | 1012.1 |
| 20260507115919 | 45 | 203 | 3.0 | 7.0 | 0.00 | 0.00 | 0.00 | 80 | 1012.1 |
| 20260507115419 | 45 | 196 | 3.0 | 7.0 | 0.00 | 0.00 | 0.00 | 80 | 1012.1 |
| 20260507114918 | 45 | 232 | 3.0 | 8.0 | 0.00 | 0.00 | 0.00 | 80 | 1012.1 |
| 20260507114418 | 45 | 257 | 3.0 | 8.0 | 0.00 | 0.00 | 0.00 | 80 | 1012.2 |
| 20260507113919 | 45 | 193 | 3.0 | 6.0 | 0.00 | 0.00 | 0.00 | 80 | 1012.2 |
| 20260507113417 | 45 | 225 | 4.0 | 8.0 | 0.00 | 0.00 | 0.00 | 80 | 1012.3 |
| 20260507112916 | 45 | 212 | 4.0 | 8.0 | 0.00 | 0.00 | 0.00 | 79 | 1012.2 |
| 20260507112415 | 45 | 255 | 3.0 | 7.0 | 0.00 | 0.00 | 0.00 | 79 | 1012.2 |
| 20260507111916 | 45 | 261 | 3.0 | 8.0 | 0.00 | 0.00 | 0.00 | 79 | 1012.3 |
| 20260507111415 | 45 | 238 | 3.0 | 9.0 | 0.00 | 0.00 | 0.00 | 79 | 1012.2 |
| 20260507110914 | 45 | 230 | 5.0 | 9.0 | 0.00 | 0.00 | 0.00 | 79 | 1012.2 |
| 20260507110414 | 45 | 214 | 4.0 | 7.0 | 0.00 | 0.00 | 0.00 | 79 | 1012.2 |
| 20260507105413 | 45 | 207 | 3.0 | 7.0 | 0.00 | 0.00 | 0.00 | 78 | 1012.3 |
| 20260507104912 | 45 | 265 | 4.0 | 7.0 | 0.00 | 0.00 | 0.00 | 78 | 1012.2 |
| 20260507104412 | 45 | 221 | 3.0 | 7.0 | 0.00 | 0.00 | 0.00 | 78 | 1012.3 |
| 20260507103411 | 45 | 214 | 3.0 | 8.0 | 0.00 | 0.00 | 0.00 | 78 | 1012.2 |
| 20260507102911 | 46 | 241 | 2.0 | 9.0 | 0.00 | 0.00 | 0.00 | 77 | 1012.2 |
| 20260507102410 | 46 | 250 | 5.0 | 9.0 | 0.00 | 0.00 | 0.00 | 77 | 1012.2 |
| 20260507101910 | 46 | 223 | 2.0 | 7.0 | 0.00 | 0.00 | 0.00 | 77 | 1012.2 |
| 20260507100909 | 46 | 250 | 3.0 | 7.0 | 0.00 | 0.00 | 0.00 | 77 | 1012.2 |
| 20260507100409 | 46 | 254 | 3.0 | 6.0 | 0.00 | 0.00 | 0.00 | 77 | 1012.2 |
| 20260507095909 | 46 | 219 | 3.0 | 6.0 | 0.00 | 0.00 | 0.00 | 76 | 1012.3 |
| 20260507095408 | 46 | 196 | 4.0 | 7.0 | 0.00 | 0.00 | 0.00 | 76 | 1012.3 |
| 20260507094908 | 46 | 232 | 4.0 | 7.0 | 0.00 | 0.00 | 0.00 | 76 | 1012.3 |
| 20260507094407 | 46 | 225 | 4.0 | 7.0 | 0.00 | 0.00 | 0.00 | 75 | 1012.4 |
| 20260507093406 | 46 | 219 | 3.0 | 7.0 | 0.00 | 0.00 | 0.00 | 75 | 1012.4 |
| 20260507092906 | 46 | 229 | 4.0 | 7.0 | 0.00 | 0.00 | 0.00 | 76 | 1012.5 |
| 20260507091905 | 45 | 201 | 3.0 | 7.0 | 0.00 | 0.00 | 0.00 | 76 | 1012.5 |
| 20260507091405 | 45 | 265 | 3.0 | 7.0 | 0.00 | 0.00 | 0.00 | 76 | 1012.6 |
| 20260507090905 | 45 | 265 | 3.0 | 7.0 | 0.00 | 0.00 | 0.00 | 77 | 1012.6 |
| 20260507090404 | 44 | 201 | 2.0 | 7.0 | 0.00 | 0.00 | 0.00 | 77 | 1012.6 |
| 20260507085904 | 44 | 219 | 3.0 | 5.0 | 0.00 | 0.00 | 0.00 | 77 | 1012.7 |
| 20260507085403 | 43 | 214 | 2.0 | 5.0 | 0.00 | 0.00 | 0.00 | 77 | 1012.8 |
| 20260507084904 | 43 | 210 | 2.0 | 4.0 | 0.00 | 0.00 | 0.00 | 77 | 1012.9 |
| 20260507084404 | 42 | 234 | 1.0 | 4.0 | 0.00 | 0.00 | 0.00 | 75 | 1013.0 |
| 20260507083902 | 42 | 178 | 1.0 | 2.0 | 0.00 | 0.00 | 0.00 | 75 | 1013.0 |
| 20260507083402 | 42 | 221 | 0.0 | 2.0 | 0.00 | 0.00 | 0.00 | 74 | 1013.1 |
| 20260507082856 | 42 | 137 | 0.0 | 2.0 | 0.00 | 0.00 | 0.00 | 74 | 1013.3 |
| 20260507082357 | 42 | 161 | 1.0 | 2.0 | 0.00 | 0.00 | 0.00 | 74 | 1013.3 |
| 20260507081855 | 42 | 178 | 0.0 | 2.0 | 0.00 | 0.00 | 0.00 | 73 | 1013.4 |
| 20260507080855 | 42 | 196 | 1.0 | 2.0 | 0.00 | 0.00 | 0.00 | 73 | 1013.5 |
| 20260507080355 | 42 | 146 | 1.0 | 2.0 | 0.00 | 0.00 | 0.00 | 73 | 1013.6 |
| 20260507075356 | 42 | 119 | 0.0 | 1.0 | 0.00 | 0.00 | 0.00 | 72 | 1013.8 |
| 20260507074354 | 42 | 178 | 0.0 | 3.0 | 0.00 | 0.00 | 0.00 | 73 | 1013.8 |
| 20260507073854 | 42 | 119 | 0.0 | 2.0 | 0.00 | 0.00 | 0.00 | 72 | 1013.8 |
| 20260507072353 | 42 | 178 | 0.0 | 1.0 | 0.00 | 0.00 | 0.00 | 72 | 1013.9 |
| 20260507071847 | 42 | 126 | 0.0 | 1.0 | 0.00 | 0.00 | 0.00 | 72 | 1014.0 |
| 20260507071347 | 42 | 298 | 0.0 | 2.0 | 0.00 | 0.00 | 0.00 | 73 | 1014.2 |
| 20260507070846 | 42 | 119 | 1.0 | 2.0 | 0.00 | 0.00 | 0.00 | 73 | 1014.2 |
| 20260507070347 | 42 | 162 | 1.0 | 3.0 | 0.00 | 0.00 | 0.00 | 74 | 1014.1 |
| 20260507065846 | 42 | 129 | 1.0 | 4.0 | 0.00 | 0.00 | 0.00 | 75 | 1014.2 |
| 20260507065345 | 41 | 83 | 2.0 | 4.0 | 0.00 | 0.00 | 0.00 | 75 | 1014.3 |
| 20260507064841 | 41 | 137 | 2.0 | 3.0 | 0.00 | 0.00 | 0.00 | 74 | 1014.5 |
| 20260507064341 | 41 | 124 | 2.0 | 3.0 | 0.00 | 0.00 | 0.00 | 74 | 1014.5 |
| 20260507063339 | 41 | 119 | 1.0 | 3.0 | 0.00 | 0.00 | 0.00 | 74 | 1014.5 |
| 20260507062338 | 41 | 111 | 1.0 | 3.0 | 0.00 | 0.00 | 0.00 | 76 | 1014.6 |
| 20260507061838 | 41 | 117 | 1.0 | 3.0 | 0.00 | 0.00 | 0.00 | 76 | 1014.6 |
| 20260507061338 | 40 | 121 | 2.0 | 3.0 | 0.00 | 0.00 | 0.00 | 76 | 1014.7 |
| 20260507060837 | 40 | 115 | 2.0 | 3.0 | 0.00 | 0.00 | 0.00 | 77 | 1014.8 |
| 20260507060337 | 40 | 111 | 1.0 | 3.0 | 0.00 | 0.00 | 0.00 | 76 | 1014.8 |
| 20260507055837 | 40 | 238 | 0.0 | 3.0 | 0.00 | 0.00 | 0.00 | 76 | 1014.8 |
| 20260507055337 | 40 | 124 | 1.0 | 3.0 | 0.00 | 0.00 | 0.00 | 76 | 1014.8 |
| 20260507054839 | 40 | 83 | 2.0 | 3.0 | 0.00 | 0.00 | 0.00 | 77 | 1014.8 |
| 20260507054337 | 40 | 111 | 1.0 | 3.0 | 0.00 | 0.00 | 0.00 | 77 | 1014.9 |
| 20260507053336 | 40 | 238 | 0.0 | 2.0 | 0.00 | 0.00 | 0.00 | 77 | 1014.9 |
| 20260507052837 | 40 | 153 | 1.0 | 3.0 | 0.00 | 0.00 | 0.00 | 78 | 1014.9 |
| 20260507051836 | 39 | 153 | 1.0 | 2.0 | 0.00 | 0.00 | 0.00 | 78 | 1014.9 |
| 20260507051337 | 39 | 80 | 1.0 | 2.0 | 0.00 | 0.00 | 0.00 | 77 | 1015.1 |
| 20260507050837 | 39 | 212 | 1.0 | 2.0 | 0.00 | 0.00 | 0.00 | 76 | 1015.1 |
| 20260507050337 | 39 | 232 | 0.0 | 1.0 | 0.00 | 0.00 | 0.00 | 76 | 1014.9 |
| 20260507045834 | 39 | 137 | 0.0 | 1.0 | 0.00 | 0.00 | 0.00 | 75 | 1014.8 |
| 20260507045335 | 40 | 137 | 0.0 | 1.0 | 0.00 | 0.00 | 0.00 | 75 | 1014.9 |
| 20260507044836 | 40 | 93 | 0.0 | 0.0 | 0.00 | 0.00 | 0.00 | 74 | 1015.0 |
| 20260507043834 | 40 | 93 | 0.0 | 2.0 | 0.00 | 0.00 | 0.00 | 73 | 1015.1 |
| 20260507043334 | 40 | 221 | 0.0 | 2.0 | 0.00 | 0.00 | 0.00 | 73 | 1015.1 |
| 20260507042834 | 40 | 162 | 1.0 | 2.0 | 0.00 | 0.00 | 0.00 | 72 | 1015.2 |
| 20260507042335 | 40 | 93 | 0.0 | 2.0 | 0.00 | 0.00 | 0.00 | 71 | 1015.3 |
| 20260507041833 | 41 | 34 | 1.0 | 4.0 | 0.00 | 0.00 | 0.00 | 71 | 1015.3 |
| 20260507041333 | 41 | 76 | 2.0 | 4.0 | 0.00 | 0.00 | 0.00 | 70 | 1015.4 |
| 20260507040333 | 42 | 265 | 0.0 | 1.0 | 0.00 | 0.00 | 0.00 | 70 | 1015.3 |
| 20260507035834 | 42 | 178 | 0.0 | 1.0 | 0.00 | 0.00 | 0.00 | 69 | 1015.4 |
| 20260507035333 | 42 | 137 | 1.0 | 1.0 | 0.00 | 0.00 | 0.00 | 69 | 1015.4 |
| 20260507034832 | 42 | 178 | 1.0 | 1.0 | 0.00 | 0.00 | 0.00 | 69 | 1015.4 |
| 20260507034334 | 43 | 309 | 0.0 | 2.0 | 0.00 | 0.00 | 0.00 | 68 | 1015.4 |
| 20260507033832 | 43 | 309 | 0.0 | 2.0 | 0.00 | 0.00 | 0.00 | 66 | 1015.4 |
| 20260507033332 | 43 | 51 | 0.0 | 1.0 | 0.00 | 0.00 | 0.00 | 65 | 1015.5 |
| 20260507032832 | 43 | 119 | 0.0 | 1.0 | 0.00 | 0.00 | 0.00 | 64 | 1015.6 |
| 20260507032332 | 43 | 51 | 0.0 | 1.0 | 0.00 | 0.00 | 0.00 | 62 | 1015.6 |
| 20260507031832 | 43 | 309 | 0.0 | 1.0 | 0.00 | 0.00 | 0.00 | 61 | 1015.7 |
| 20260507031330 | 44 | 309 | 1.0 | 1.0 | 0.00 | 0.00 | 0.00 | 60 | 1015.6 |
| 20260507030830 | 44 | 9 | 1.0 | 1.0 | 0.00 | 0.00 | 0.00 | 59 | 1015.6 |
| 20260507025829 | 45 | 9 | 0.0 | 1.0 | 0.00 | 0.00 | 0.00 | 58 | 1015.6 |
| 20260507025329 | 45 | 205 | 0.0 | 1.0 | 0.00 | 0.00 | 0.00 | 58 | 1015.6 |
| 20260507024829 | 46 | 178 | 0.0 | 1.0 | 0.00 | 0.00 | 0.00 | 57 | 1015.5 |
| 20260507024329 | 46 | 309 | 0.0 | 1.0 | 0.00 | 0.00 | 0.00 | 54 | 1015.6 |
| 20260507023829 | 46 | 291 | 0.0 | 1.0 | 0.00 | 0.00 | 0.00 | 54 | 1015.6 |
| 20260507023328 | 47 | 137 | 1.0 | 1.0 | 0.00 | 0.00 | 0.00 | 53 | 1015.6 |
| 20260507022828 | 47 | 111 | 0.0 | 2.0 | 0.00 | 0.00 | 0.00 | 52 | 1015.5 |
| 20260507022328 | 47 | 93 | 1.0 | 2.0 | 0.00 | 0.00 | 0.00 | 51 | 1015.4 |
| 20260507021827 | 47 | 119 | 1.0 | 2.0 | 0.00 | 0.00 | 0.00 | 49 | 1015.4 |
| 20260507021327 | 48 | 137 | 0.0 | 1.0 | 0.00 | 0.00 | 0.00 | 50 | 1015.3 |
| 20260507020827 | 49 | 162 | 0.0 | 1.0 | 0.00 | 0.00 | 0.00 | 49 | 1015.4 |
| 20260507020327 | 50 | 137 | 0.0 | 1.0 | 0.00 | 0.00 | 0.00 | 47 | 1015.3 |
| 20260507015827 | 51 | 51 | 0.0 | 1.0 | 0.00 | 0.00 | 0.00 | 46 | 1015.2 |
| 20260507015328 | 51 | 146 | 0.0 | 2.0 | 0.00 | 0.00 | 0.00 | 45 | 1015.3 |
| 20260507014828 | 52 | 178 | 0.0 | 2.0 | 0.00 | 0.00 | 0.00 | 43 | 1015.3 |
| 20260507014326 | 52 | 119 | 0.0 | 2.0 | 0.00 | 0.00 | 0.00 | 40 | 1015.2 |
| 20260507013826 | 53 | 119 | 1.0 | 2.0 | 0.00 | 0.00 | 0.00 | 40 | 1015.2 |
| 20260507013326 | 54 | 205 | 0.0 | 1.0 | 0.00 | 0.00 | 0.00 | 38 | 1015.2 |
| 20260507012825 | 54 | 34 | 0.0 | 1.0 | 0.00 | 0.00 | 0.00 | 37 | 1015.2 |
| 20260507012326 | 55 | 51 | 0.0 | 1.0 | 0.00 | 0.00 | 0.00 | 36 | 1015.3 |
| 20260507011827 | 55 | 178 | 0.0 | 2.0 | 0.00 | 0.00 | 0.00 | 36 | 1015.2 |
| 20260507011322 | 55 | 9 | 0.0 | 3.0 | 0.00 | 0.00 | 0.00 | 34 | 1015.2 |
| 20260507010811 | 55 | 330 | 1.0 | 3.0 | 0.00 | 0.00 | 0.00 | 33 | 1015.2 |
| 20260507005309 | 57 | 340 | 2.0 | 4.0 | 0.00 | 0.00 | 0.00 | 35 | 1015.2 |
| 20260507004808 | 57 | 17 | 2.0 | 5.0 | 0.00 | 0.00 | 0.00 | 32 | 1015.1 |
| 20260507004309 | 57 | 31 | 2.0 | 5.0 | 0.00 | 0.00 | 0.00 | 34 | 1015.2 |
| 20260507003809 | 58 | 103 | 1.0 | 4.0 | 0.00 | 0.00 | 0.00 | 33 | 1015.3 |
| 20260507003308 | 58 | 32 | 1.0 | 4.0 | 0.00 | 0.00 | 0.00 | 34 | 1015.4 |
| 20260507002808 | 58 | 334 | 2.0 | 3.0 | 0.00 | 0.00 | 0.00 | 33 | 1015.2 |
| 20260507002308 | 59 | 298 | 1.0 | 3.0 | 0.00 | 0.00 | 0.00 | 35 | 1015.4 |
| 20260507001808 | 59 | 334 | 1.0 | 4.0 | 0.00 | 0.00 | 0.00 | 33 | 1015.5 |
| 20260507000807 | 60 | 291 | 3.0 | 9.0 | 0.00 | 0.00 | 0.00 | 30 | 1015.6 |
| 20260507000307 | 61 | 342 | 5.0 | 9.0 | 0.00 | 0.00 | 0.00 | 31 | 1015.5 |
| 20260506235806 | 61 | 273 | 2.0 | 7.0 | 0.00 | 0.00 | 0.00 | 32 | 1015.6 |
| 20260506235306 | 62 | 275 | 2.0 | 7.0 | 0.00 | 0.00 | 0.00 | 30 | 1015.6 |
| 20260506234805 | 63 | 312 | 2.0 | 8.0 | 0.00 | 0.00 | 0.00 | 31 | 1015.7 |
| 20260506234305 | 63 | 319 | 3.0 | 8.0 | 0.00 | 0.00 | 0.00 | 31 | 1015.7 |
| 20260506233805 | 63 | 298 | 3.0 | 8.0 | 0.00 | 0.00 | 0.00 | 30 | 1015.7 |
| 20260506233305 | 63 | 291 | 3.0 | 9.0 | 0.00 | 0.00 | 0.00 | 31 | 1015.7 |
| 20260506232806 | 63 | 309 | 3.0 | 9.0 | 0.00 | 0.00 | 0.00 | 32 | 1015.7 |
| 20260506232306 | 63 | 344 | 3.0 | 6.0 | 0.00 | 0.00 | 0.00 | 32 | 1015.7 |
| 20260506231803 | 63 | 348 | 2.0 | 8.0 | 0.00 | 0.00 | 0.00 | 31 | 1015.9 |
| 20260506231303 | 64 | 9 | 3.0 | 8.0 | 0.00 | 0.00 | 0.00 | 29 | 1015.9 |
| 20260506230803 | 64 | 286 | 3.0 | 9.0 | 0.00 | 0.00 | 0.00 | 30 | 1015.9 |
| 20260506225301 | 64 | 305 | 3.0 | 9.0 | 0.00 | 0.00 | 0.00 | 31 | 1015.9 |
| 20260506224801 | 64 | 279 | 4.0 | 8.0 | 0.00 | 0.00 | 0.00 | 31 | 1016.0 |
| 20260506223800 | 64 | 281 | 5.0 | 10.0 | 0.00 | 0.00 | 0.00 | 28 | 1016.0 |
| 20260506223300 | 64 | 321 | 2.0 | 10.0 | 0.00 | 0.00 | 0.00 | 32 | 1016.2 |
| 20260506222801 | 64 | 340 | 3.0 | 11.0 | 0.00 | 0.00 | 0.00 | 30 | 1016.2 |
| 20260506222259 | 64 | 244 | 6.0 | 11.0 | 0.00 | 0.00 | 0.00 | 29 | 1016.2 |
| 20260506221759 | 64 | 331 | 3.0 | 8.0 | 0.00 | 0.00 | 0.00 | 29 | 1016.3 |
| 20260506221258 | 64 | 279 | 3.0 | 10.0 | 0.00 | 0.00 | 0.00 | 29 | 1016.5 |
| 20260506220759 | 64 | 300 | 5.0 | 10.0 | 0.00 | 0.00 | 0.00 | 31 | 1016.5 |
| 20260506220258 | 64 | 317 | 4.0 | 12.0 | 0.00 | 0.00 | 0.00 | 34 | 1016.5 |
| 20260506215757 | 64 | 300 | 5.0 | 12.0 | 0.00 | 0.00 | 0.00 | 29 | 1016.5 |
| 20260506215257 | 65 | 309 | 4.0 | 10.0 | 0.00 | 0.00 | 0.00 | 30 | 1016.6 |
| 20260506214257 | 63 | 304 | 4.0 | 14.0 | 0.00 | 0.00 | 0.00 | 32 | 1016.7 |
| 20260506213755 | 63 | 316 | 5.0 | 14.0 | 0.00 | 0.00 | 0.00 | 33 | 1016.7 |
| 20260506213254 | 63 | 312 | 4.0 | 11.0 | 0.00 | 0.00 | 0.00 | 29 | 1016.8 |
| 20260506212755 | 64 | 305 | 4.0 | 11.0 | 0.00 | 0.00 | 0.00 | 32 | 1016.9 |
| 20260506212254 | 65 | 307 | 5.0 | 11.0 | 0.00 | 0.00 | 0.00 | 29 | 1016.8 |
| 20260506211253 | 64 | 348 | 6.0 | 14.0 | 0.00 | 0.00 | 0.00 | 31 | 1016.8 |
| 20260506210753 | 64 | 305 | 4.0 | 14.0 | 0.00 | 0.00 | 0.00 | 32 | 1017.0 |
| 20260506210251 | 63 | 297 | 6.0 | 14.0 | 0.00 | 0.00 | 0.00 | 30 | 1017.0 |
| 20260506205251 | 63 | 255 | 5.0 | 14.0 | 0.00 | 0.00 | 0.00 | 30 | 1017.2 |
| 20260506204749 | 63 | 295 | 3.0 | 14.0 | 0.00 | 0.00 | 0.00 | 29 | 1017.2 |
| 20260506204249 | 63 | 288 | 3.0 | 12.0 | 0.00 | 0.00 | 0.00 | 35 | 1017.1 |
| 20260506203748 | 62 | 319 | 3.0 | 12.0 | 0.00 | 0.00 | 0.00 | 35 | 1017.4 |
| 20260506203248 | 61 | 332 | 5.0 | 10.0 | 0.00 | 0.00 | 0.00 | 36 | 1017.4 |
| 20260506202749 | 61 | 239 | 6.0 | 14.0 | 0.00 | 0.00 | 0.00 | 31 | 1017.5 |
| 20260506202248 | 62 | 225 | 6.0 | 14.0 | 0.00 | 0.00 | 0.00 | 31 | 1017.5 |
| 20260506201747 | 63 | 301 | 8.0 | 14.0 | 0.00 | 0.00 | 0.00 | 30 | 1017.6 |
| 20260506201247 | 63 | 257 | 5.0 | 15.0 | 0.00 | 0.00 | 0.00 | 34 | 1017.6 |
| 20260506200746 | 62 | 261 | 9.0 | 15.0 | 0.00 | 0.00 | 0.00 | 32 | 1017.6 |
| 20260506200246 | 62 | 23 | 7.0 | 13.0 | 0.00 | 0.00 | 0.00 | 31 | 1017.7 |
| 20260506195746 | 61 | 265 | 5.0 | 12.0 | 0.00 | 0.00 | 0.00 | 37 | 1017.8 |
| 20260506195247 | 61 | 332 | 5.0 | 12.0 | 0.00 | 0.00 | 0.00 | 32 | 1017.8 |
| 20260506194746 | 61 | 282 | 5.0 | 17.0 | 0.00 | 0.00 | 0.00 | 35 | 1017.8 |
| 20260506194245 | 61 | 323 | 7.0 | 17.0 | 0.00 | 0.00 | 0.00 | 31 | 1017.9 |
| 20260506193745 | 62 | 282 | 5.0 | 15.0 | 0.00 | 0.00 | 0.00 | 33 | 1017.8 |